HODOYOSHI-3

Last updated on Wed Sep 17 2025 00:02:30 GMT+0000 (Coordinated Universal Time)

1 40015U 14033F 25259.47306424 .00001821 00000+0 22114-3 0 9998 2 40015 97.6177 69.1495 0033601 173.7245 186.4398 14.84312117607009
UTC large
Height (km)
Speed (km/s)
/
Latitude / Longitude
Inclination (degrees)
Orbital Period (minutes)
Azimuth
Elevation
Range (km)
Doppler Factor

Next 0 passes for location: London (51.5072 / 0.1276)

Sorry there are no passes over London.